Theta_e
311 312 311 315 317 317 314 314 308 309 312 317 319 321 321 321 322 323 324 326 326 326 326 325 324 324 326 326 325 325 325 328 327 327 327 328 326 329 329 330 331 333 332 328 331
311 311 312 314 317 317 317 314 313 308 309 310 313 319 317 317 317 319 321 323 324 325 325 325 324 323 322 326 326 321 322 328 323 323 325 326 327 328 329 330 330 331 328 329 328
307 310 312 313 316 317 318 317 314 312 308 308 309 310 312 311 313 314 316 318 319 322 323 324 324 325 324 324 325 323 322 324 323 323 325 325 325 326 327 327 330 327 327 328 329
306 308 310 312 314 316 316 318 318 315 312 309 307 309 311 312 314 317 318 318 318 319 321 322 323 324 325 323 324 324 322 323 324 324 324 324 324 324 325 326 329 328 325 325 326
305 306 308 310 313 314 315 315 317 318 314 311 308 310 314 314 312 319 318 318 316 317 318 320 323 326 325 323 323 323 323 324 324 324 324 324 323 323 324 326 329 330 328 326 326
302 304 306 307 310 313 314 314 314 318 317 312 310 309 312 315 311 317 319 317 317 315 316 319 325 326 325 324 322 322 324 323 324 323 324 323 323 324 325 324 330 328 327 326 324
303 303 303 305 307 311 313 313 314 314 318 313 311 310 313 310 312 312 312 312 314 316 315 317 324 325 325 323 323 323 323 321 322 323 323 324 323 322 324 324 324 324 325 324 323
301 302 302 304 305 309 311 313 313 314 315 318 313 311 310 309 316 316 316 316 316 318 317 318 321 325 326 325 323 322 320 323 320 322 323 323 321 319 323 323 324 324 324 325 325
301 301 300 303 306 306 310 312 312 313 314 315 315 311 311 312 311 315 314 314 316 321 324 324 325 326 325 323 322 320 322 322 321 320 321 320 321 320 321 322 322 322 323 324 324
302 302 300 300 304 306 310 310 312 312 314 314 315 312 313 313 313 311 314 316 317 321 324 326 326 322 319 321 325 323 323 320 320 319 318 320 320 318 322 321 321 321 321 322 323
304 302 301 298 301 305 309 310 311 313 314 314 313 313 312 313 312 312 311 315 320 322 322 324 324 323 323 322 321 320 321 322 319 317 318 317 318 319 321 320 320 322 321 321 322
304 303 302 298 299 304 308 311 311 312 313 313 314 314 314 313 313 313 314 315 320 319 321 322 322 318 320 321 322 321 320 320 318 317 318 317 317 316 316 317 320 321 321 321 321
304 304 302 298 298 303 307 310 311 311 312 312 313 313 314 313 313 313 315 315 318 318 320 318 317 318 320 321 322 321 322 320 320 317 316 317 317 316 316 317 319 319 319 320 320
304 304 303 298 300 303 304 307 310 312 311 312 313 313 313 313 313 313 314 314 317 317 316 318 317 318 318 319 320 322 317 319 319 319 319 315 317 314 313 312 313 316 318 318 318
305 304 303 298 299 303 304 306 308 310 312 310 312 312 313 312 313 313 313 315 314 316 315 314 316 317 318 318 314 317 314 316 317 317 317 317 317 313 313 313 312 313 314 315 318
305 305 303 298 299 299 302 305 305 310 309 312 312 313 313 312 313 314 316 315 314 314 313 312 314 314 314 315 315 315 318 318 318 319 322 318 317 314 314 314 313 312 314 315 316
305 304 303 299 299 300 302 301 306 309 307 311 313 313 312 313 313 313 315 316 314 316 315 313 314 313 313 316 315 317 318 317 321 319 317 312 317 316 313 312 310 311 314 314 315
305 304 303 300 299 301 303 304 308 305 305 310 311 312 312 313 313 314 314 316 313 312 312 315 316 314 313 314 316 318 318 316 317 317 313 310 315 312 311 313 314 315 313 313 314
305 304 301 300 300 302 302 305 303 299 306 309 311 313 313 312 313 312 313 314 314 312 312 313 312 311 313 314 314 315 318 314 314 303 310 311 310 309 308 309 311 310 312 313 314
304 303 301 300 300 302 301 304 303 304 306 310 309 311 313 312 312 314 313 313 314 312 311 312 311 312 312 313 313 313 314 318 313 315 308 309 309 311 311 311 310 310 311 313 313
303 301 301 300 301 301 296 292 297 302 303 308 310 312 311 312 311 313 313 311 312 312 312 313 312 313 313 314 315 316 315 315 315 312 312 311 309 305 309 308 310 309 312 312 312
300 301 301 301 296 293 295 290 299 302 303 303 303 304 307 308 312 311 312 313 312 312 313 312 313 314 315 313 312 314 315 315 316 309 310 313 313 308 307 309 310 312 313 313 313
300 301 302 300 292 295 285 294 297 299 301 303 303 304 302 304 306 311 310 310 311 311 312 312 313 313 312 314 311 314 313 314 314 311 315 316 314 311 310 310 311 310 311 312 313
300 300 299 299 295 290 287 290 293 299 301 302 303 304 303 303 303 303 304 308 311 311 312 312 311 312 313 311 313 314 314 314 315 316 315 315 314 312 310 308 309 312 312 312 313
299 296 298 298 295 292 296 294 291 295 299 300 299 300 301 301 304 304 304 306 310 310 312 312 314 312 311 309 311 312 313 314 315 315 314 313 312 312 311 311 311 312 312 312 311
298 297 296 296 298 298 297 291 297 296 298 299 299 299 300 299 301 304 307 307 310 309 312 311 312 310 311 310 308 310 310 311 313 313 313 312 312 311 311 311 310 310 310 311 311
298 297 298 296 290 293 297 294 296 298 299 300 300 300 301 301 302 303 305 305 306 308 311 312 313 311 313 308 310 312 311 310 310 310 311 311 311 310 310 310 310 309 309 310 310
Wind_Speed
18 16 19 18 18 17 16 15 18 19 17 17 16 25 16 15 13 12 10 11 8 9 8 9 7 8 5 7 7 5 4 1 1 5 5 6 5 5 7 9 5 3 8 10 16
19 17 17 18 17 19 18 16 15 16 17 16 16 22 20 14 13 16 13 12 10 9 8 8 8 7 5 7 5 5 3 0 2 2 3 6 8 10 6 8 6 11 12 14 16
16 17 15 17 18 17 17 17 15 14 14 16 14 14 16 12 9 11 12 14 13 11 10 7 6 5 3 4 3 2 3 1 3 5 5 4 6 6 13 2 10 18 17 15 16
18 16 14 14 17 17 16 16 16 14 13 13 14 16 13 13 6 6 8 10 10 13 13 8 2 2 2 2 3 2 1 2 2 2 3 2 3 5 5 7 12 15 15 17 16
18 20 15 14 14 17 16 16 14 15 13 13 13 14 14 11 10 10 8 3 6 11 13 11 7 2 3 2 4 3 2 2 2 4 2 2 3 1 6 11 11 17 17 17 14
19 21 18 15 14 15 16 16 16 14 15 14 14 15 16 6 10 15 11 5 2 6 12 14 6 3 5 3 2 1 3 1 3 4 3 2 1 1 9 13 19 18 18 17 16
15 17 22 18 15 14 14 17 18 15 13 14 14 15 18 19 10 13 15 13 11 4 8 14 11 6 1 3 3 2 1 4 0 5 3 4 3 8 18 11 17 20 21 21 20
15 15 19 19 17 14 16 16 16 19 14 13 13 14 8 13 12 12 12 12 10 10 8 11 15 6 3 5 3 4 5 2 4 7 5 9 7 14 20 18 20 19 22 25 23
13 14 14 21 17 16 14 15 16 17 18 16 15 10 5 8 21 16 13 9 12 7 10 11 11 5 3 3 3 5 3 4 6 10 4 7 6 15 20 17 22 22 27 25 25
16 15 14 16 19 17 14 15 17 16 14 14 9 7 8 9 10 23 14 8 10 8 9 7 6 3 2 4 6 5 5 4 6 3 5 7 8 9 12 19 16 13 16 23 30
21 16 13 16 21 19 17 19 10 8 22 10 13 5 4 7 10 13 20 12 10 9 5 8 6 14 14 16 8 6 4 7 3 3 2 7 11 14 24 17 18 21 21 18 18
25 21 14 12 16 20 23 15 10 5 9 15 9 14 4 8 5 12 18 14 10 5 6 4 15 6 6 5 7 5 5 4 5 6 5 7 8 9 11 13 25 26 25 27 27
25 24 15 12 14 20 22 16 14 13 4 11 17 18 12 14 5 17 21 13 5 7 9 6 3 15 8 6 8 5 11 4 5 4 4 4 11 7 8 20 27 31 35 37 39
24 26 18 14 15 19 28 25 11 9 1 7 13 12 15 11 5 13 23 12 5 10 5 7 9 6 5 9 9 11 6 5 4 0 5 2 12 8 5 8 7 21 29 32 41
25 26 22 22 14 24 21 25 7 15 4 6 11 10 22 14 11 11 19 11 5 6 6 7 6 12 8 7 6 4 7 7 5 4 4 3 5 5 4 6 9 22 31 33 26
25 30 25 24 18 9 20 21 12 5 7 6 8 12 12 18 7 10 11 7 5 3 3 7 2 7 10 6 11 6 4 3 2 3 8 10 8 6 9 14 13 12 25 23 27
28 30 28 23 20 11 15 16 4 8 3 6 6 10 18 10 14 8 11 12 7 6 9 4 13 3 4 7 4 7 10 1 5 4 7 3 10 17 3 7 7 11 18 22 25
28 30 25 22 16 15 21 5 5 2 5 1 5 11 15 9 18 11 12 14 14 3 4 9 4 13 9 7 5 14 9 5 7 5 4 4 9 6 9 19 21 30 25 16 20
31 32 24 21 18 18 12 6 4 4 5 8 5 9 12 12 6 14 15 17 15 13 8 6 6 1 3 4 12 5 12 6 3 3 2 5 7 8 9 10 10 12 15 20 25
37 31 23 21 21 18 2 3 2 1 5 5 7 4 9 15 12 15 15 13 17 20 3 5 1 4 13 4 4 8 7 5 3 3 4 6 6 9 3 8 5 5 18 25 25
32 14 21 21 21 10 3 5 2 2 3 5 3 3 3 8 13 9 5 2 20 17 20 2 1 1 6 11 15 5 5 5 3 6 5 2 6 7 13 9 7 10 16 22 25
13 4 26 25 6 3 2 6 4 3 4 3 3 3 2 2 9 10 10 12 17 21 18 8 3 5 11 2 8 15 14 16 6 6 5 8 16 3 5 6 5 8 16 19 26
8 10 27 24 4 2 4 0 3 1 2 4 4 2 2 2 3 5 10 7 9 16 15 14 5 2 2 4 3 8 13 11 13 2 13 9 16 12 20 17 12 11 14 19 18
8 4 6 13 2 7 3 2 2 6 4 2 3 6 3 4 4 3 7 8 22 23 23 21 6 9 16 4 7 8 11 17 15 8 14 14 27 15 7 8 7 5 10 13 12
4 2 6 6 6 4 4 6 4 5 6 12 3 9 6 6 7 7 4 13 11 18 22 8 10 17 15 1 4 8 14 15 18 23 15 22 19 26 18 14 19 32 35 33 27
4 4 4 2 17 8 7 4 8 2 6 4 5 4 7 9 10 6 9 3 5 5 9 7 5 4 13 9 8 5 3 14 20 20 14 22 24 27 29 24 22 29 27 27 32
5 8 6 7 4 5 7 6 7 6 7 10 7 4 10 18 20 19 13 7 9 12 13 10 8 5 17 7 6 9 21 17 11 16 15 16 26 23 24 22 30 29 27 37 42
Wind_Direction
257 247 235 233 235 223 212 209 216 220 217 219 213 237 252 263 267 270 265 255 262 277 295 308 319 342 351 16 1 342 65 50 16 167 175 149 122 128 114 123 108 118 148 150 161
247 245 235 230 226 228 221 211 209 212 216 216 221 220 238 250 262 263 258 260 262 269 285 300 335 353 353 356 2 56 88 123 299 143 170 134 134 135 131 118 95 125 137 150 163
252 240 232 230 224 218 218 218 209 206 208 217 213 208 217 231 265 263 254 254 252 250 255 276 311 339 339 333 345 44 149 238 358 67 124 107 117 130 138 185 185 169 162 166 170
247 241 229 228 227 222 210 209 212 209 203 207 208 209 203 203 219 199 216 228 230 229 229 230 249 258 302 298 350 73 145 17 162 80 110 96 144 106 146 186 201 184 174 172 180
243 242 233 225 226 226 212 209 203 206 207 199 197 198 187 183 216 169 158 139 211 221 223 206 199 205 209 301 341 184 238 54 158 153 123 99 63 110 154 161 169 172 182 186 194
242 240 239 225 224 222 218 210 211 197 199 196 190 190 192 196 211 204 207 202 15 218 210 207 180 144 276 254 193 24 207 206 231 221 180 196 158 334 215 173 175 188 196 203 209
242 239 237 236 224 220 218 213 212 205 195 194 194 196 200 213 209 204 217 229 232 226 199 205 202 190 18 293 277 204 215 347 202 208 214 183 300 233 229 193 204 200 209 214 217
231 242 235 232 229 221 216 213 212 207 205 198 198 199 219 225 182 191 200 215 213 215 203 197 205 228 216 321 348 155 73 133 282 177 227 152 257 248 243 238 241 240 233 233 228
236 238 240 221 222 219 213 210 207 204 209 215 186 190 233 213 208 187 174 198 196 202 197 191 188 196 163 96 13 358 176 179 290 213 194 189 239 258 245 228 240 247 243 239 238
234 235 233 226 215 207 212 207 203 194 195 206 226 186 221 212 210 204 196 172 181 171 163 171 172 145 75 132 191 198 215 216 203 253 193 234 247 267 241 222 234 250 254 259 241
232 231 230 224 212 195 203 197 184 184 192 193 186 177 113 161 185 194 201 183 181 183 154 177 196 204 193 199 192 181 194 215 223 247 223 239 246 250 247 243 251 254 252 257 250
229 225 225 217 209 194 193 184 176 162 194 200 167 191 125 169 143 179 188 179 185 188 155 155 224 199 195 197 198 190 193 233 280 264 199 275 260 246 253 239 242 248 255 253 250
220 219 214 211 203 206 199 197 191 149 149 205 208 201 197 186 201 180 185 190 172 178 200 200 191 190 195 188 200 218 224 188 232 325 263 309 278 244 242 239 246 251 255 255 252
210 211 203 191 198 205 214 206 162 151 201 190 195 221 191 172 245 198 191 173 187 192 153 244 243 185 174 208 177 224 189 183 212 357 250 100 280 251 251 256 236 255 254 259 258
206 203 197 195 195 196 211 199 178 180 220 161 163 187 186 170 148 188 196 190 182 166 165 223 188 209 218 217 170 203 162 186 202 227 282 219 284 277 233 269 254 252 263 264 262
207 193 190 195 205 200 204 202 201 165 234 160 142 172 158 190 176 138 168 184 184 190 267 221 226 197 219 189 199 166 116 116 72 186 248 224 208 206 222 233 252 256 263 262 248
187 186 191 194 196 178 171 181 211 191 204 176 173 173 181 173 183 167 170 186 175 179 212 196 238 277 186 164 161 175 153 164 199 216 241 263 202 250 274 274 235 255 267 259 239
183 183 185 192 186 171 170 171 208 198 188 214 150 160 191 161 197 177 163 199 213 205 142 196 231 206 192 206 175 198 175 162 196 208 247 197 227 257 230 245 248 251 263 249 214
175 176 176 182 176 177 167 202 196 186 170 157 143 182 186 195 166 195 211 214 203 195 181 180 248 247 217 167 180 190 210 176 92 24 35 234 289 290 248 263 258 255 233 216 213
156 162 172 175 178 172 109 255 200 74 331 166 180 186 184 187 176 193 177 221 213 199 193 218 262 201 196 162 188 179 159 185 169 227 258 256 264 238 317 241 252 219 220 217 212
153 134 169 173 173 169 174 226 288 212 81 350 139 119 257 189 189 191 229 225 195 188 203 285 140 355 130 203 191 163 184 206 169 191 200 267 255 225 232 229 243 245 242 234 225
118 110 163 165 101 82 158 180 187 100 123 100 101 86 40 308 213 193 219 211 207 180 199 180 169 209 204 289 226 222 212 196 197 246 244 252 261 318 193 130 152 266 283 267 248
89 96 162 174 145 194 302 322 148 190 178 162 152 156 132 102 22 281 248 227 217 186 186 179 207 151 348 276 342 212 217 221 226 64 224 230 258 221 239 274 324 313 294 273 254
113 127 138 190 101 136 130 236 197 213 177 149 114 131 149 202 151 282 328 308 212 208 207 176 176 217 229 200 146 206 201 216 214 222 233 227 259 257 260 271 284 297 286 292 276
116 120 158 174 198 155 178 173 169 184 209 188 194 201 170 207 174 219 266 259 265 208 206 188 230 224 246 133 209 211 204 215 219 230 228 250 243 263 258 257 256 264 266 272 264
97 129 117 66 166 176 206 230 178 222 156 227 213 154 229 247 222 216 183 108 275 226 202 214 245 194 256 227 208 244 229 224 230 240 247 248 259 266 274 269 256 258 261 261 259
147 134 167 164 119 139 214 195 198 171 234 206 185 188 236 241 245 268 234 215 208 264 209 199 214 190 250 167 175 232 218 227 235 239 238 244 249 263 268 266 259 257 252 256 259